Torna al catalogo

FENGYUN 1C DEB

AttivoSSO
NORAD 31064·DEBRIS·🇨🇳 China

Lanciato May 10, 1999 da Taiyuan Satellite Launch Center

Loading…

Prossimi Passaggi (prossime 24 ore)

TLE

AggiornatoSource: Space-Track

Epoca: Sep 14, 2026, 05:09 UTC

1 31064U 99025BFJ 26257.21504258  .00000374  00000-0  14210-3 0  9993
2 31064  98.6025 238.1812 0238795 281.0289  89.7725 14.22544669 11671

Traccia FENGYUN 1C DEB in tempo reale con AllMySat

Download on the App Store